G1CAE-13 Weather Reports


Display with metric or nautical units.
time (UTC)temp
F
wind
direction
speed
MPH
gust
MPH
rain 1hr
in
rain 24hr
in
rain mn
in
humidity
%
barometer
mb
20260506042703 40 75 1.0 4.0 0.00 0.00 0.00 76 1015.8
20260506042018 40 76 1.0 4.0 0.00 0.00 0.00 76 1015.7
20260506040903 41 75 1.0 3.0 0.00 0.00 0.00 76 1015.9
20260506040003 41 76 1.0 4.0 0.00 0.00 0.00 76 1016.0
20260506035403 41 76 1.0 4.0 0.00 0.00 0.00 76 1015.7
20260506034503 41 73 1.0 2.0 0.00 0.00 0.00 76 1016.0
20260506033603 41 71 1.0 3.0 0.00 0.00 0.00 76 1016.0
20260506032917 41 72 1.0 3.0 0.00 0.00 0.00 76 1016.1
20260506031803 41 76 1.0 3.0 0.00 0.00 0.00 76 1016.2
20260506030903 41 78 1.0 3.0 0.00 0.00 0.00 77 1016.0
20260506030217 41 76 2.0 6.0 0.00 0.00 0.00 76 1015.8
20260506025403 41 74 2.0 6.0 0.00 0.00 0.00 76 1016.2
20260506024503 41 77 2.0 6.0 0.00 0.00 0.00 76 1015.9
20260506023603 41 76 1.0 3.0 0.00 0.00 0.00 77 1015.9
20260506022703 41 75 1.0 4.0 0.00 0.00 0.00 77 1015.9
20260506021803 41 75 2.0 4.0 0.00 0.00 0.00 77 1015.7
20260506020903 41 70 2.0 6.0 0.00 0.00 0.00 77 1015.9
20260506020218 41 72 2.0 4.0 0.00 0.00 0.00 77 1016.0
20260506015403 41 74 1.0 3.0 0.00 0.00 0.00 79 1016.1
20260506014503 41 70 1.0 2.0 0.00 0.00 0.00 78 1016.1
20260506013816 41 73 1.0 3.0 0.00 0.00 0.00 78 1016.0
20260506012703 41 73 1.0 3.0 0.00 0.00 0.00 78 1016.1
20260506012017 41 75 1.0 3.0 0.00 0.00 0.00 77 1016.3
20260506010903 41 80 1.0 4.0 0.00 0.00 0.00 77 1016.2
20260506010004 41 75 1.0 3.0 0.00 0.00 0.00 77 1016.2
20260506005403 41 75 1.0 4.0 0.00 0.00 0.00 77 1016.2
20260506004717 41 77 1.0 4.0 0.00 0.00 0.00 77 1016.2
20260506003603 41 76 1.0 4.0 0.00 0.00 0.00 77 1016.0
20260506002703 42 77 1.0 4.0 0.00 0.00 0.00 76 1016.1
20260506001803 42 80 2.0 6.0 0.00 0.00 0.00 76 1016.2
20260506000903 42 84 2.0 6.0 0.00 0.00 0.00 76 1016.1
20260506000003 42 78 2.0 6.0 0.00 0.00 0.00 76 1016.0
20260505235403 42 76 2.0 6.0 0.00 0.00 0.00 76 1016.3
20260505234503 42 79 1.0 4.0 0.00 0.00 0.00 76 1016.3
20260505233603 42 81 2.0 6.0 0.00 0.00 0.00 76 1016.3
20260505232703 43 81 2.0 6.0 0.00 0.00 0.00 76 1016.2
20260505231803 43 78 2.0 6.0 0.00 0.00 0.00 76 1016.4
20260505230903 43 75 2.0 8.0 0.00 0.00 0.00 76 1016.2
20260505230004 43 73 1.0 6.0 0.00 0.00 0.00 75 1016.3
20260505225403 44 81 2.0 6.0 0.00 0.00 0.00 75 1016.4
20260505224503 44 73 2.0 8.0 0.00 0.00 0.00 75 1016.2
20260505223603 44 83 2.0 7.0 0.00 0.00 0.00 75 1016.3
20260505222917 44 90 2.0 6.0 0.00 0.00 0.00 74 1016.2
20260505221803 45 76 2.0 8.0 0.00 0.00 0.00 73 1016.3
20260505221117 45 75 2.0 8.0 0.00 0.00 0.00 73 1016.6
20260505220003 45 78 2.0 6.0 0.00 0.00 0.00 73 1016.3
20260505215403 45 85 2.0 6.0 0.00 0.00 0.00 72 1016.2
20260505214503 45 83 2.0 6.0 0.00 0.00 0.00 72 1016.3
20260505213603 45 83 2.0 6.0 0.00 0.00 0.00 72 1015.9
20260505212703 46 84 2.0 7.0 0.00 0.00 0.00 72 1015.9
20260505211803 46 82 2.0 7.0 0.00 0.00 0.00 72 1015.8
20260505211117 46 83 2.0 6.0 0.00 0.00 0.00 72 1016.1
20260505210003 46 76 2.0 7.0 0.00 0.00 0.00 72 1016.2
20260505205403 46 76 2.0 8.0 0.00 0.00 0.00 72 1016.0
20260505204503 46 76 2.0 8.0 0.00 0.00 0.00 71 1015.8
20260505203817 46 80 2.0 8.0 0.00 0.00 0.00 71 1015.8
20260505202703 46 80 2.0 7.0 0.00 0.00 0.00 71 1016.0
20260505201803 47 76 2.0 6.0 0.00 0.00 0.00 70 1016.0
20260505200903 47 80 2.0 6.0 0.00 0.00 0.00 70 1016.0
20260505200003 47 78 2.0 4.0 0.00 0.00 0.00 70 1015.9
20260505195403 47 75 2.0 4.0 0.00 0.00 0.00 70 1015.8
20260505194503 47 79 2.0 6.0 0.00 0.00 0.00 70 1015.8
20260505193603 47 87 2.0 6.0 0.00 0.00 0.00 70 1015.8
20260505192703 47 82 2.0 7.0 0.00 0.00 0.00 70 1015.4
20260505191803 48 80 2.0 7.0 0.00 0.00 0.00 70 1015.5
20260505190903 48 81 2.0 8.0 0.00 0.00 0.00 69 1015.4
20260505190004 48 88 2.0 8.0 0.00 0.00 0.00 68 1015.3
20260505185403 48 84 2.0 8.0 0.00 0.00 0.00 69 1015.1
20260505184503 48 80 3.0 10.0 0.00 0.00 0.00 68 1015.1
20260505183603 49 83 3.0 8.0 0.00 0.00 0.00 67 1015.2
20260505182703 49 82 3.0 10.0 0.00 0.00 0.00 68 1015.6
20260505181803 49 84 3.0 8.0 0.00 0.00 0.00 68 1015.3
20260505180903 49 87 3.0 11.0 0.00 0.00 0.00 68 1015.4
20260505180003 49 83 3.0 9.0 0.00 0.00 0.00 68 1015.4
20260505175617 50 77 3.0 9.0 0.00 0.00 0.00 68 1015.2
20260505174503 50 84 4.0 10.0 0.00 0.00 0.00 68 1015.4
20260505173603 50 79 3.0 10.0 0.00 0.00 0.00 69 1015.5
20260505172703 51 85 3.0 13.0 0.00 0.00 0.00 68 1015.4
20260505171803 51 89 3.0 8.0 0.00 0.00 0.00 67 1015.2
20260505170903 51 80 4.0 10.0 0.00 0.00 0.00 68 1015.1
20260505170217 52 72 4.0 10.0 0.00 0.00 0.00 69 1015.3
20260505165403 53 90 3.0 11.0 0.00 0.00 0.00 68 1015.2
20260505164503 53 89 4.0 13.0 0.00 0.00 0.00 67 1015.1
20260505163603 54 78 4.0 13.0 0.00 0.00 0.00 66 1015.1
20260505162703 54 85 4.0 13.0 0.00 0.00 0.00 67 1015.1
20260505162018 54 85 4.0 13.0 0.00 0.00 0.00 66 1015.3
20260505160903 51 76 4.0 11.0 0.00 0.00 0.00 70 1014.9
20260505152703 55 66 2.0 6.0 0.00 0.00 0.00 64 1014.8
20260505151803 56 75 2.0 6.0 0.00 0.00 0.00 62 1015.0
20260505150903 57 64 1.0 4.0 0.00 0.00 0.00 62 1014.8
20260505124503 56 149 1.0 3.0 0.00 0.00 0.00 55 1014.8
20260505123603 55 133 1.0 3.0 0.00 0.00 0.00 57 1014.9
20260505122917 56 168 1.0 3.0 0.00 0.00 0.00 56 1014.8
20260505121803 55 76 1.0 4.0 0.00 0.00 0.00 58 1015.0
20260505120903 55 66 1.0 4.0 0.00 0.00 0.00 56 1014.9
20260505120004 56 92 1.0 3.0 0.00 0.00 0.00 58 1014.9
20260505115403 55 136 1.0 3.0 0.00 0.00 0.00 57 1014.9
20260505114503 56 85 1.0 4.0 0.00 0.00 0.00 56 1014.8
20260505113603 55 183 0.0 2.0 0.00 0.00 0.00 57 1014.9
20260505112703 55 56 1.0 4.0 0.00 0.00 0.00 60 1015.0
20260505112018 56 69 1.0 4.0 0.00 0.00 0.00 55 1015.0
20260505110903 54 78 1.0 4.0 0.00 0.00 0.00 58 1015.1
20260505101803 53 87 1.0 2.0 0.00 0.00 0.00 65 1015.2
20260505100903 52 39 1.0 3.0 0.00 0.00 0.00 65 1015.2
20260505100218 52 44 1.0 3.0 0.00 0.00 0.00 67 1015.3
20260505095403 52 60 1.0 3.0 0.00 0.00 0.00 69 1015.1
20260505094503 52 53 1.0 4.0 0.00 0.00 0.00 69 1015.1
20260505093817 52 59 1.0 3.0 0.00 0.00 0.00 71 1015.2
20260505092703 52 51 1.0 4.0 0.00 0.00 0.00 70 1015.2
20260505091803 51 30 1.0 3.0 0.00 0.00 0.00 73 1015.0
20260505090903 52 57 1.0 3.0 0.00 0.00 0.00 71 1015.2
20260505090218 51 63 1.0 3.0 0.00 0.00 0.00 71 1015.1
20260505085403 51 68 1.0 2.0 0.00 0.00 0.00 70 1015.1
20260505084503 51 64 0.0 2.0 0.00 0.00 0.00 71 1015.1
20260505083603 51 65 1.0 3.0 0.00 0.00 0.00 73 1015.1
20260505082703 51 61 1.0 2.0 0.00 0.00 0.00 73 1015.1
20260505082017 50 66 1.0 3.0 0.00 0.00 0.00 73 1015.2
20260505080903 50 67 1.0 3.0 0.00 0.00 0.00 73 1015.0
20260505080003 50 58 1.0 3.0 0.00 0.00 0.00 74 1015.1
20260505075403 49 51 1.0 4.0 0.00 0.00 0.00 75 1015.1
20260505074503 49 54 1.0 3.0 0.00 0.00 0.00 76 1015.3
20260505073603 49 60 1.0 6.0 0.00 0.00 0.00 78 1015.2
20260505072917 49 55 1.0 4.0 0.00 0.00 0.00 79 1015.2
20260505072017 49 55 1.0 6.0 0.00 0.00 0.00 79 1015.2
20260505070903 49 54 1.0 4.0 0.00 0.00 0.00 79 1015.2
20260505070003 49 69 1.0 4.0 0.00 0.00 0.00 78 1014.9
20260505065617 49 58 1.0 4.0 0.00 0.00 0.00 78 1015.1
20260505064718 49 47 1.0 3.0 0.00 0.00 0.00 78 1015.1
20260505063603 49 108 0.0 2.0 0.00 0.00 0.00 79 1015.1
20260505062703 49 69 1.0 3.0 0.00 0.00 0.00 79 1015.1
20260505061803 49 82 0.0 3.0 0.00 0.00 0.00 78 1014.9
20260505060903 49 117 0.0 2.0 0.00 0.00 0.00 81 1014.5
20260505060004 48 113 0.0 2.0 0.00 0.00 0.00 84 1014.6
20260505055403 47 164 0.0 1.0 0.00 0.00 0.00 85 1014.6
20260505054503 47 82 0.0 1.0 0.00 0.00 0.00 85 1014.7
20260505053603 47 0 0.0 0.0 0.00 0.00 0.00 85 1014.6
20260505052703 46 0 0.0 0.0 0.00 0.00 0.00 86 1014.6
20260505051803 46 0 0.0 0.0 0.00 0.00 0.00 86 1014.4
20260505051117 46 0 0.0 0.0 0.00 0.00 0.00 86 1014.6